Location: Bullenkuhlen
(53.7689°N, 9.7495°E)
Time: 07:47:14
(UTC+00:00)

CZ-4C R/B - Pass Details

Date: 09 April 2020
Orbit: 637 x 1365 km, 63.4° (Epoch: 01 June)

Event Time Altitude Azimuth Distance (km) Brightness Sun altitude
Rises 22:37:23 0° 311° (NW) 3,834 6.4 -27.5°
Reaches altitude 10° 22:40:10 10° 301° (WNW) 2,985 5.5 -27.6°
Maximum altitude 22:46:22 32° 243° (WSW) 1,985 3.9 -27.7°
Enters shadow 22:47:01 31° 233° (SW) 2,015 3.9 -27.8°
